Gainesville, FL

8:53 PM EDT on October 17, 2017 (GMT -0400)
Gainesville Regional

Weather History for KGNV - March, 2013

Change the Weather History Date:

Wednesday, March 6, 2013

  Actual Average Record
Temperature  
Mean Temperature 54 °F 61 °F  
Max Temperature 66 °F 73 °F 87 °F (1967)
Min Temperature 41 °F 48 °F 28 °F (1962)
Degree Days  
Heating Degree Days 11 6  
Month to date heating degree days 95 36  
Since 1 July heating degree days 827 1070  
Cooling Degree Days 0 1  
Month to date cooling degree days 0 6  
Year to date cooling degree days 100 38  
Growing Degree Days 4 (Base 50)    
Moisture  
Dew Point 34 °F    
Average Humidity 54    
Maximum Humidity 87    
Minimum Humidity 20    
Precipitation  
Precipitation 0.02 in 0.16 in 1.40 in (1932)
Month to date precipitation 0.02 0.92  
Year to date precipitation 1.99 7.43  
Snow  
Snow 0.00 in 0.00 in 0.00 in ()
Month to date snowfall 0.0 0.0  
Since 1 July snowfall 0.0 0.0  
Snow Depth 0.00 in    
Sea Level Pressure  
Sea Level Pressure 30.04 in    
Wind  
Wind Speed 12 mph (WNW)    
Max Wind Speed 23 mph    
Max Gust Speed 31 mph    
Visibility 10 miles    
Events Rain    
T = Trace of Precipitation, MM = Missing Value Source: NWS Daily Summary

Daily Weather History Graph

Daily Weather History Graph

Search for Another Location

Airport or City:

Trip Planner

Search our weather history database for the weather conditions in past years. The results will help you decide how hot, cold, wet, or windy it might be!

Date:

Astronomy

Mar. 06, 2013 Rise Set
Actual Time 6:49 AM EST 6:31 PM EST
Civil Twilight 6:25 AM EST 6:55 PM EST
Nautical Twilight 5:57 AM EST 7:23 PM EST
Astronomical Twilight 5:29 AM EST 7:51 PM EST
Moon 2:38 AM EST (3/6) 1:30 PM EST (3/6)
Length of Visible Light 12h 30m
Length of Day
11h 42m
Waning Crescent, 30% of the Moon is Illuminated
Mar 6
Waning Crescent
Mar 11
New
Mar 19
First Quarter
Mar 27
Full
Apr 3
Last Quarter

Hourly Weather History & Observations

Time (EST) Temp. Windchill Dew Point Humidity Pressure Visibility Wind Dir Wind Speed Gust Speed Precip Events Conditions
12:23 AM 66.2 °F - 59.0 °F 78% 29.95 in 10.0 mi SW 15.0 mph 21.9 mph N/A   Overcast
12:53 AM 64.9 °F - 60.1 °F 84% 29.94 in 10.0 mi WSW 12.7 mph - 0.00 in Rain Light Rain
1:53 AM 64.9 °F - 61.0 °F 87% 29.93 in 7.0 mi WNW 11.5 mph - 0.01 in Rain Light Rain
2:21 AM 62.6 °F - 57.2 °F 82% 29.93 in 10.0 mi West 18.4 mph 25.3 mph 0.01 in   Overcast
2:53 AM 62.1 °F - 55.0 °F 78% 29.94 in 10.0 mi WNW 20.7 mph 26.5 mph 0.01 in   Overcast
3:53 AM 54.0 °F - 43.0 °F 66% 29.98 in 10.0 mi WNW 16.1 mph 24.2 mph N/A   Scattered Clouds
4:53 AM 46.9 °F - 34.0 °F 61% 30.03 in 10.0 mi NW 13.8 mph 23.0 mph N/A   Clear
5:53 AM 45.0 °F 40.6 °F 30.9 °F 58% 30.05 in 10.0 mi NW 8.1 mph - N/A   Clear
6:53 AM 44.1 °F 39.0 °F 30.9 °F 60% 30.08 in 10.0 mi WNW 9.2 mph - N/A   Clear
7:53 AM 46.0 °F 40.6 °F 30.9 °F 56% 30.09 in 10.0 mi WNW 11.5 mph - N/A   Clear
8:53 AM 48.9 °F - 28.9 °F 46% 30.09 in 10.0 mi WNW 15.0 mph 29.9 mph N/A   Clear
9:53 AM 51.1 °F - 27.0 °F 39% 30.10 in 10.0 mi NW 13.8 mph 21.9 mph N/A   Clear
10:53 AM 54.0 °F - 26.1 °F 34% 30.08 in 10.0 mi WNW 12.7 mph 23.0 mph N/A   Clear
11:53 AM 57.0 °F - 23.0 °F 27% 30.07 in 10.0 mi WNW 15.0 mph 27.6 mph N/A   Clear
12:53 PM 59.0 °F - 25.0 °F 27% 30.05 in 10.0 mi WNW 16.1 mph 25.3 mph N/A   Clear
1:53 PM 60.1 °F - 21.0 °F 22% 30.01 in 10.0 mi NW 13.8 mph 25.3 mph N/A   Clear
2:53 PM 62.1 °F - 21.9 °F 21% 30.00 in 10.0 mi WNW 20.7 mph 28.8 mph N/A   Clear
3:53 PM 62.1 °F - 23.0 °F 22% 30.00 in 10.0 mi WNW 19.6 mph 25.3 mph N/A   Clear
4:53 PM 60.1 °F - 24.1 °F 25% 30.01 in 10.0 mi NW 13.8 mph 28.8 mph N/A   Clear
5:53 PM 55.9 °F - 25.0 °F 30% 30.04 in 10.0 mi NW 11.5 mph 24.2 mph N/A   Clear
6:53 PM 52.0 °F - 26.1 °F 37% 30.06 in 10.0 mi NW 9.2 mph - N/A   Clear
7:53 PM 50.0 °F - 27.0 °F 41% 30.10 in 10.0 mi NW 6.9 mph - N/A   Clear
8:53 PM 44.1 °F 42.5 °F 28.0 °F 53% 30.13 in 10.0 mi WNW 3.5 mph - N/A   Clear
9:53 PM 45.0 °F 42.6 °F 28.0 °F 52% 30.15 in 10.0 mi NW 4.6 mph - N/A   Clear
10:53 PM 43.0 °F 41.3 °F 28.9 °F 58% 30.17 in 10.0 mi WNW 3.5 mph - N/A   Clear
11:53 PM 42.1 °F 39.2 °F 28.9 °F 60% 30.17 in 10.0 mi WNW 4.6 mph - N/A   Clear